IRIDIUM 169

Last updated on Sun Jun 21 2026 00:03:14 GMT+0000 (Coordinated Universal Time)

1 43926U 19002E 26171.31269502 .00000205 00000+0 60469-4 0 9996 2 43926 86.4222 23.8864 0001762 75.2300 284.9093 14.38610217390677
UTC large
Height (km)
Speed (km/s)
/
Latitude / Longitude
Inclination (degrees)
Orbital Period (minutes)
Azimuth
Elevation
Range (km)
Doppler Factor

Next 0 passes for location: London (51.5072 / 0.1276)

No passes found over London.
IRIDIUM 169